Weather History for KLSE - August, 2013

Change the Weather History Date:

Thursday, August 29, 2013

  Actual Average Record
Temperature  
Mean Temperature 82 °F 69 °F  
Max Temperature 92 °F 79 °F 95 °F (1966)
Min Temperature 71 °F 59 °F 40 °F (1965)
Degree Days  
Heating Degree Days 0 1  
Month to date heating degree days 2 9  
Since 1 June heating degree days 58  
Since 1 July heating degree days 14 14  
Cooling Degree Days 17 5  
Month to date cooling degree days 229 204  
Year to date cooling degree days 754 691  
Since 1 June cooling degree days 694  
Growing Degree Days 31 (Base 50)    
Moisture  
Dew Point 70 °F    
Average Humidity 73    
Maximum Humidity 93    
Minimum Humidity 52    
Precipitation  
Precipitation 0.00 in 0.12 in 1.24 in (1876)
Month to date precipitation 1.04 4.02  
Year to date precipitation 27.15 23.69  
Snow  
Snow 0.00 in 0.00 in 0.00 in (2002)
Month to date snowfall 0.0 0.0  
Since 1 June snowfall T  
Since 1 July snowfall T 0.0  
Snow Depth 0.00 in    
Sea Level Pressure  
Sea Level Pressure 29.97 in    
Wind  
Wind Speed 9 mph (SSE)    
Max Wind Speed 17 mph    
Max Gust Speed 21 mph    
Visibility 10 miles    
Events      
T = Trace of Precipitation, MM = Missing Value Source: NWS Daily Summary

Daily Weather History Graph

Daily Weather History Graph

Search for Another Location

Airport or City:

Trip Planner

Search our weather history database for the weather conditions in past years. The results will help you decide how hot, cold, wet, or windy it might be!

Date:

Astronomy

Aug. 29, 2013 Rise Set
Actual Time 6:25 AM CDT 7:45 PM CDT
Civil Twilight 5:55 AM CDT 8:15 PM CDT
Nautical Twilight 5:19 AM CDT 8:51 PM CDT
Astronomical Twilight 4:41 AM CDT 9:29 PM CDT
Moon 12:11 AM CDT (8/29) 3:20 PM CDT (8/29)
Length of Visible Light 14h 19m
Length of Day
13h 20m
Last Quarter, 38% of the Moon is Illuminated
Aug 29
Last Quarter
Sep 5
New
Sep 12
First Quarter
Sep 19
Full
Sep 26
Last Quarter

Hourly Weather History & Observations

Time (CDT) Temp. Heat Index Dew Point Humidity Pressure Visibility Wind Dir Wind Speed Gust Speed Precip Events Conditions
12:53 AM 73.9 °F - 69.1 °F 85% 30.00 in 10.0 mi ESE 4.6 mph - N/A   Clear
1:53 AM 73.0 °F - 69.1 °F 87% 30.00 in 10.0 mi ESE 4.6 mph - N/A   Clear
2:53 AM 72.0 °F - 69.1 °F 91% 29.99 in 10.0 mi ESE 4.6 mph - N/A   Clear
3:39 AM 71.6 °F - 69.8 °F 94% 30.03 in 10.0 mi ESE 4.6 mph - N/A   Mostly Cloudy
3:53 AM 72.0 °F - 69.1 °F 91% 30.01 in 10.0 mi SE 3.5 mph - N/A   Overcast
4:53 AM 72.0 °F - 68.0 °F 87% 29.99 in 10.0 mi ESE 4.6 mph - N/A   Mostly Cloudy
5:53 AM 72.0 °F - 68.0 °F 87% 29.99 in 10.0 mi ESE 4.6 mph - N/A   Mostly Cloudy
6:01 AM 71.6 °F - 68.0 °F 88% 30.03 in 10.0 mi ESE 5.8 mph - N/A   Mostly Cloudy
6:53 AM 73.0 °F - 68.0 °F 84% 30.01 in 10.0 mi ESE 4.6 mph - N/A   Mostly Cloudy
7:53 AM 73.9 °F - 68.0 °F 82% 30.01 in 10.0 mi ESE 8.1 mph - N/A   Mostly Cloudy
8:53 AM 77.0 °F - 66.0 °F 69% 30.01 in 10.0 mi SSE 10.4 mph - N/A   Overcast
9:53 AM 80.1 °F 82.3 °F 66.9 °F 64% 30.01 in 10.0 mi SSE 10.4 mph - N/A   Partly Cloudy
10:09 AM 80.6 °F 82.7 °F 66.2 °F 61% 30.04 in 10.0 mi South 12.7 mph - N/A   Mostly Cloudy
10:53 AM 82.9 °F 85.8 °F 68.0 °F 60% 30.01 in 10.0 mi SSE 10.4 mph - N/A   Mostly Cloudy
11:09 AM 82.4 °F 86.3 °F 69.8 °F 66% 30.04 in 10.0 mi South 8.1 mph 16.1 mph N/A   Scattered Clouds
11:16 AM 82.4 °F 86.3 °F 69.8 °F 66% 30.04 in 10.0 mi South 11.5 mph - N/A   Mostly Cloudy
11:25 AM 82.4 °F 86.3 °F 69.8 °F 66% 30.04 in 10.0 mi South 9.2 mph - N/A   Partly Cloudy
11:53 AM 84.0 °F 87.8 °F 69.1 °F 61% 30.00 in 10.0 mi SSE 10.4 mph - N/A   Mostly Cloudy
12:53 PM 88.0 °F 93.8 °F 71.1 °F 57% 29.97 in 10.0 mi South 11.5 mph 19.6 mph N/A   Clear
1:53 PM 88.0 °F 94.7 °F 72.0 °F 59% 29.96 in 10.0 mi South 12.7 mph - N/A   Overcast
2:53 PM 89.1 °F 95.0 °F 71.1 °F 55% 29.94 in 10.0 mi South 13.8 mph - N/A   Clear
3:53 PM 91.9 °F 98.4 °F 71.1 °F 50% 29.92 in 10.0 mi South 11.5 mph - N/A   Clear
4:53 PM 91.0 °F 98.2 °F 72.0 °F 53% 29.90 in 10.0 mi South 12.7 mph - N/A   Clear
5:53 PM 90.0 °F 97.9 °F 73.0 °F 57% 29.89 in 10.0 mi South 9.2 mph - N/A   Clear
6:53 PM 88.0 °F 95.6 °F 73.0 °F 61% 29.88 in 10.0 mi South 10.4 mph - N/A   Clear
7:53 PM 86.0 °F 93.0 °F 73.0 °F 65% 29.88 in 10.0 mi South 6.9 mph - N/A   Clear
8:53 PM 84.0 °F 90.2 °F 73.0 °F 69% 29.89 in 10.0 mi SSE 8.1 mph - N/A   Clear
9:53 PM 82.9 °F 89.4 °F 73.9 °F 74% 29.88 in 10.0 mi South 5.8 mph - N/A   Clear
10:53 PM 82.0 °F 87.9 °F 73.9 °F 76% 29.88 in 10.0 mi South 8.1 mph - N/A   Clear
11:53 PM 81.0 °F 86.2 °F 73.9 °F 79% 29.87 in 10.0 mi South 10.4 mph - N/A   Partly Cloudy